Date,TemperatureHighF,TemperatureAvgF,TemperatureLowF,DewpointHighF,DewpointAvgF,DewpointLowF,HumidityHigh,HumidityAvg,HumidityLow,PressureMaxIn,PressureMinIn,WindSpeedMaxMPH,WindSpeedAvgMPH,GustSpeedMaxMPH,PrecipitationSumIn
2013-1-2,15,13,11,13,11,9,91,91,90,30.66,30.61,0,0,0,0.00
2013-1-3,31,17,4,23,12,1,94,80,64,30.61,30.45,0,0,0,0.00
2013-1-4,41,30,22,30,23,16,94,74,57,30.49,30.33,0,0,0,0.03
2013-1-5,30,26,24,26,22,18,92,81,71,30.35,30.28,0,0,0,0.00
2013-1-6,40,32,24,30,27,20,92,80,65,30.31,30.14,0,0,0,0.02
2013-1-7,47,40,33,37,33,28,91,77,64,30.19,30.07,11,1,11,0.00
2013-1-8,48,41,37,39,36,31,89,81,65,30.20,30.00,25,9,25,0.00
2013-1-9,44,36,25,36,29,22,91,76,62,30.00,29.75,32,7,32,0.02
2013-1-10,33,26,22,26,20,17,88,77,56,30.11,29.91,21,2,21,0.01
2013-1-11,29,22,17,19,15,13,87,76,56,30.35,30.09,11,1,11,0.00
2013-1-12,28,17,11,14,10,6,86,75,49,30.49,30.34,18,3,18,0.00
2013-1-13,29,18,10,11,8,4,86,64,37,30.56,30.46,11,1,11,0.00
2013-1-14,41,26,14,24,14,6,77,62,39,30.57,30.49,20,5,20,0.00
2013-1-15,54,37,24,28,21,17,77,56,31,30.68,30.56,13,4,15,0.00
2013-1-16,58,43,33,23,20,15,59,41,20,30.65,30.48,17,5,17,0.00
2013-1-17,55,39,30,27,21,19,65,51,26,30.49,30.38,19,4,19,0.00
2013-1-18,55,39,29,27,21,18,65,51,28,30.41,30.36,21,5,21,0.00
2013-1-19,58,40,30,27,20,16,59,46,23,30.43,30.35,17,3,17,0.00
2013-1-20,50,35,25,22,19,15,67,52,29,30.47,30.37,16,3,16,0.00
2013-1-21,55,37,27,22,16,11,63,45,19,30.38,30.23,26,5,26,0.00
2013-1-22,45,34,27,25,20,14,80,57,37,30.24,30.09,15,2,15,0.00
2013-1-23,51,42,34,37,27,16,88,58,34,30.12,29.86,27,5,27,0.00
2013-1-24,51,42,32,39,35,31,97,78,56,30.19,30.12,21,5,21,0.00
2013-1-25,45,42,37,40,38,35,93,86,76,30.16,29.92,31,7,31,0.01
2013-1-26,41,34,28,35,26,21,95,73,50,30.07,29.92,17,3,17,0.00
2013-1-27,38,31,27,27,24,18,88,75,46,30.15,30.06,14,4,15,0.00
2013-1-28,40,34,31,28,26,24,86,71,54,30.17,30.07,17,3,18,0.00
2013-1-29,47,40,36,34,30,27,81,69,59,30.41,30.13,18,4,18,0.00
2013-1-30,50,41,35,37,33,28,85,74,58,30.45,30.40,14,5,14,0.00
2013-1-31,49,38,31,35,32,28,90,78,55,30.41,30.32,16,3,16,0.00
2013-2-1,50,38,28,36,30,26,94,76,41,30.45,30.33,14,2,14,0.00
2013-2-2,50,37,28,34,30,26,96,80,50,30.46,30.31,16,2,16,0.00
2013-2-3,57,43,32,31,27,24,82,56,32,30.33,30.16,15,4,15,0.00
2013-2-4,54,45,39,31,25,19,62,46,29,30.17,29.93,16,3,16,0.00
2013-2-5,47,41,34,32,25,18,78,54,37,30.05,29.88,25,6,25,0.00
2013-2-6,48,38,33,28,25,22,76,60,36,30.13,29.92,22,5,22,0.00
2013-2-7,40,34,28,29,25,21,88,70,49,30.11,29.89,26,2,26,0.00
2013-2-8,39,31,25,26,22,17,89,70,41,30.24,30.11,12,2,12,0.00
2013-2-9,44,32,23,29,23,14,87,71,55,30.30,30.20,10,2,10,0.00
2013-2-10,45,34,27,28,24,21,93,70,39,30.35,30.28,11,1,11,0.00
2013-2-11,50,37,29,32,26,21,82,65,41,30.37,30.25,16,3,16,0.00
2013-2-12,50,38,32,33,29,25,88,71,42,30.46,30.37,16,4,16,0.00
2013-2-13,47,39,35,35,31,29,87,74,55,30.47,30.39,15,3,15,0.00
2013-2-14,53,40,32,36,33,29,93,77,48,30.56,30.47,14,3,14,0.00
2013-2-15,58,43,33,38,34,30,93,74,43,30.52,30.27,13,2,13,0.00
2013-2-16,52,42,28,34,27,21,83,58,31,30.27,30.11,21,6,21,0.00
2013-2-17,46,33,25,25,21,11,84,65,25,30.23,30.10,11,2,11,0.00
2013-2-18,40,32,27,26,23,20,86,70,51,30.11,29.79,11,2,11,0.00
2013-2-19,40,32,26,25,22,20,84,70,47,30.00,29.71,13,2,13,0.00
2013-2-20,42,32,25,25,22,18,87,68,43,30.10,30.00,9,2,9,0.00
2013-2-21,41,33,26,26,24,21,88,73,49,30.21,30.08,13,4,13,0.00
2013-2-22,44,35,27,34,29,24,94,79,60,30.20,29.89,33,8,33,0.01
2013-2-23,37,30,24,27,22,19,91,74,48,30.43,30.04,15,3,15,0.03
2013-2-24,47,34,23,32,24,19,86,71,47,30.46,30.14,21,6,21,0.00
2013-2-25,42,35,26,33,24,14,92,68,36,30.35,30.07,24,4,24,0.02
2013-2-26,48,35,24,24,19,13,83,56,27,30.41,30.30,18,5,18,0.00
2013-2-27,47,39,32,34,25,16,72,56,44,30.34,30.28,17,7,17,0.00
2013-2-28,53,44,38,41,37,32,86,77,59,30.47,30.26,26,8,26,0.00
2013-3-1,62,48,40,39,36,31,84,63,39,30.49,30.29,18,5,18,0.00
2013-3-2,56,47,39,37,33,28,75,59,37,30.29,30.08,19,5,19,0.00
2013-3-3,44,36,26,33,21,8,86,59,23,30.25,30.06,17,2,17,0.00
2013-3-4,52,35,22,22,19,17,82,56,27,30.26,30.01,11,2,11,0.00
2013-3-5,42,34,29,33,26,20,95,74,57,30.01,29.72,7,1,7,0.02
2013-3-6,42,34,31,36,29,24,97,83,61,30.00,29.56,23,4,23,0.09
2013-3-7,46,35,28,31,26,22,89,71,42,30.09,30.00,12,3,12,0.01
2013-3-8,46,35,28,34,28,23,95,78,51,30.24,30.03,10,1,10,0.02
2013-3-9,54,39,28,26,22,17,75,53,25,30.51,30.24,10,2,10,0.00
2013-3-10,61,44,32,37,28,15,77,56,19,30.50,30.36,16,4,16,0.00
2013-3-11,56,46,40,41,38,35,87,74,53,30.39,30.23,13,3,13,0.00
2013-3-12,64,48,36,40,32,19,90,60,18,30.25,30.13,19,4,19,0.00
2013-3-13,68,53,44,39,32,20,66,47,31,30.19,30.09,15,2,15,0.00
2013-3-14,67,54,46,37,29,16,66,40,17,30.15,30.02,23,6,23,0.00
2013-3-15,59,48,40,39,34,30,82,62,38,30.17,30.10,13,2,13,0.00
2013-3-16,51,42,32,34,30,25,90,65,42,30.13,29.93,29,6,29,0.00
2013-3-17,43,33,26,28,22,19,86,65,40,30.24,30.00,17,3,17,0.00
2013-3-18,54,38,26,27,20,1,85,57,12,30.28,30.18,10,2,10,0.00
2013-3-19,54,40,31,42,30,21,94,69,35,30.21,29.78,17,2,17,0.12
2013-3-20,47,41,31,42,35,20,95,79,51,30.08,29.59,35,9,35,0.06
2013-3-21,45,32,24,26,22,16,83,65,38,30.27,30.08,23,4,23,0.00
2013-3-22,40,30,24,23,19,14,89,65,37,30.39,30.25,21,3,21,0.00
2013-3-23,47,33,23,23,20,16,83,61,36,30.39,30.27,13,2,13,0.00
2013-3-24,48,36,26,27,24,19,81,62,41,30.31,30.16,9,1,9,0.00
2013-3-25,50,40,29,34,28,24,83,64,46,30.17,29.95,11,1,11,0.00
2013-3-26,49,41,36,40,36,32,95,83,66,30.00,29.95,8,1,11,0.01
2013-3-27,56,43,34,44,38,33,96,82,50,30.02,29.91,23,2,23,0.02
2013-3-28,57,46,40,46,41,38,97,84,55,30.13,30.01,12,1,12,0.01
2013-3-29,62,49,38,45,41,37,96,77,48,30.21,30.13,14,2,14,0.00
2013-3-30,70,53,40,46,41,37,93,68,35,30.21,30.04,10,2,10,0.00
2013-3-31,68,53,40,44,39,36,85,62,34,30.04,29.88,10,2,10,0.00
2013-4-1,63,52,44,44,41,38,82,68,44,30.09,29.92,14,3,14,0.00
2013-4-2,63,49,39,43,39,36,89,69,43,30.16,30.08,13,3,13,0.00
2013-4-3,68,52,39,40,34,26,87,57,22,30.14,29.94,16,4,16,0.00
2013-4-4,63,52,43,43,38,34,86,60,42,29.94,29.66,30,5,30,0.00
2013-4-5,56,45,40,43,38,33,89,75,49,29.97,29.84,26,7,26,0.00
2013-4-6,50,44,39,39,36,30,92,75,49,29.99,29.78,28,6,28,0.00
2013-4-7,48,40,33,38,32,24,91,73,48,29.88,29.64,30,6,30,0.00
2013-4-8,47,37,28,29,26,22,84,64,46,30.29,29.88,18,4,18,0.00
2013-4-9,61,43,29,38,29,20,89,62,22,30.38,30.28,13,2,13,0.00
2013-4-10,60,49,36,45,37,30,83,65,37,30.29,30.06,26,6,26,0.00
2013-4-11,57,41,29,31,28,23,91,62,29,30.24,30.14,12,2,14,0.00
2013-4-12,61,44,30,36,28,11,85,59,15,30.16,29.73,27,6,27,0.00
2013-4-13,48,40,30,35,24,18,76,54,33,30.05,29.73,23,5,23,0.00
2013-4-14,44,34,27,31,24,19,91,67,41,30.07,29.91,12,2,12,0.00
2013-4-15,41,32,29,34,30,26,96,90,72,30.18,29.92,15,2,15,0.01
2013-4-16,44,34,30,34,30,25,96,83,55,30.42,30.18,12,3,12,0.00
2013-4-17,53,38,27,28,24,15,85,58,31,30.52,30.42,15,2,15,0.00
2013-4-18,62,46,34,40,34,27,80,65,43,30.45,30.30,14,3,14,0.00
2013-4-19,57,48,38,41,38,32,86,68,44,30.30,30.10,23,6,23,0.00
2013-4-20,59,46,36,35,33,28,88,64,33,30.26,30.19,14,4,14,0.00
2013-4-21,62,47,36,41,36,31,84,65,39,30.21,30.14,16,4,16,0.00
2013-4-22,55,44,33,36,27,19,87,57,26,30.43,30.21,15,3,15,0.00
2013-4-23,64,45,28,21,15,2,64,35,9,30.42,30.14,15,2,15,0.00
2013-4-24,71,50,32,23,19,15,57,33,13,30.30,30.04,11,1,11,0.00
2013-4-25,74,57,42,37,29,20,52,35,23,30.10,29.99,20,4,20,0.00
2013-4-26,78,60,45,39,32,19,67,40,12,30.20,30.10,19,3,19,0.01
2013-4-27,70,58,45,38,32,25,63,39,20,30.20,30.09,23,5,23,0.00
2013-4-28,66,53,41,37,32,25,76,47,23,30.15,30.03,22,3,22,0.00
2013-4-29,58,49,34,42,34,25,82,57,32,30.03,29.92,24,6,24,0.00
2013-4-30,53,38,26,26,22,17,82,55,25,30.44,30.03,18,3,18,0.00
2013-5-1,66,45,28,25,21,14,79,46,15,30.57,30.43,16,2,16,0.00
2013-5-2,79,56,37,28,20,3,66,31,6,30.56,30.24,13,2,13,0.00
2013-5-3,71,58,45,33,29,24,58,36,19,30.26,30.12,14,2,14,0.00
2013-5-4,68,56,46,35,31,29,54,40,27,30.15,29.90,20,4,20,0.00
2013-5-5,73,58,46,38,33,30,55,40,25,29.92,29.74,17,4,17,0.00
2013-5-6,79,64,49,47,35,30,61,36,20,29.82,29.68,17,3,17,0.00
2013-5-7,79,63,49,47,43,33,85,53,20,29.88,29.76,21,4,21,0.00
2013-5-8,79,62,48,47,43,31,80,54,19,30.03,29.88,15,3,15,0.00
2013-5-9,84,63,51,54,45,37,80,56,20,30.08,29.99,22,3,22,0.01
2013-5-10,86,67,52,52,46,38,81,51,19,30.12,30.03,14,3,14,0.02
2013-5-11,88,70,57,54,48,36,75,50,19,30.12,29.94,18,4,18,0.00
2013-5-12,84,69,59,54,48,43,75,51,24,29.99,29.86,19,5,19,0.00
2013-5-13,69,58,46,49,42,35,82,57,38,30.08,29.89,36,6,36,0.00
2013-5-14,70,52,38,41,38,34,88,60,30,30.11,30.01,12,2,12,0.00
2013-5-15,64,50,42,49,40,34,86,69,37,30.07,29.94,16,2,16,0.04
2013-5-16,58,49,43,48,42,38,92,79,51,30.00,29.88,16,2,16,0.05
2013-5-17,59,48,41,44,40,36,94,74,47,30.05,29.92,11,2,11,0.00
2013-5-18,59,46,36,48,38,32,91,74,47,30.26,30.05,13,2,13,0.08
2013-5-19,67,50,38,45,37,34,87,64,32,30.35,30.25,16,3,16,0.00
2013-5-20,79,58,40,43,36,25,83,52,15,30.29,29.83,17,3,17,0.00
2013-5-21,58,48,34,42,32,22,78,55,32,29.88,29.65,28,7,28,0.00
2013-5-22,48,39,32,33,28,22,81,66,51,30.00,29.88,23,8,23,0.00
2013-5-23,57,44,32,34,30,26,82,60,33,30.03,29.96,17,3,17,0.00
2013-5-24,60,47,37,35,33,27,84,60,34,30.04,29.96,16,4,16,0.00
2013-5-25,64,48,35,45,36,31,92,67,33,30.03,29.93,11,2,11,0.01
2013-5-26,62,51,44,46,42,36,97,74,44,30.01,29.92,20,3,20,0.06
2013-5-27,60,49,43,50,42,36,89,77,63,29.98,29.77,24,6,24,0.02
2013-5-28,66,54,43,46,39,35,85,60,32,29.89,29.71,16,4,16,0.02
2013-5-29,60,50,42,46,40,36,95,69,44,29.98,29.63,27,7,27,0.09
2013-5-30,65,48,35,40,35,32,89,64,36,30.20,29.97,18,2,18,0.00
2013-5-31,75,54,36,39,35,27,92,55,21,30.28,30.17,12,2,12,0.00
2013-6-1,79,60,44,46,40,35,85,52,24,30.21,29.94,17,2,17,0.00
2013-6-2,75,58,46,46,40,27,92,57,17,29.98,29.88,14,2,14,0.00
2013-6-3,80,60,44,41,35,28,79,46,18,30.01,29.92,11,2,11,0.00
2013-6-4,82,64,47,40,33,26,55,34,17,30.04,29.95,14,1,14,0.00
2013-6-5,89,70,53,49,42,38,66,40,17,30.00,29.86,12,2,12,0.00
2013-6-6,91,70,56,53,48,41,71,48,20,29.92,29.81,12,1,12,0.00
2013-6-7,85,69,56,52,48,42,79,50,23,29.98,29.88,20,3,20,0.00
2013-6-8,90,70,53,49,42,22,80,44,12,29.99,29.90,15,2,15,0.00
2013-6-9,86,67,54,48,41,31,75,43,14,29.93,29.75,17,2,17,0.00
2013-6-10,81,61,46,39,35,25,68,42,17,29.82,29.69,13,2,13,0.00
2013-6-11,66,53,42,40,37,34,79,57,32,30.06,29.80,16,2,16,0.00
2013-6-12,67,50,37,39,35,31,82,58,31,30.11,30.04,17,2,17,0.00
2013-6-13,59,48,40,47,37,32,93,66,45,30.25,30.09,16,3,16,0.14
2013-6-14,77,56,38,40,34,28,87,52,17,30.25,29.98,12,2,12,0.00
2013-6-15,82,63,45,48,39,27,75,46,14,29.98,29.80,18,2,18,0.00
2013-6-16,81,63,52,61,46,40,83,56,26,30.01,29.87,15,1,15,0.16
2013-6-17,78,62,50,50,46,41,85,59,29,30.01,29.81,19,3,19,0.00
2013-6-18,63,53,47,50,44,36,87,70,44,29.90,29.80,14,2,14,0.03
2013-6-19,61,49,41,48,40,36,93,73,44,30.06,29.86,9,1,12,0.10
2013-6-20,64,50,38,41,37,34,91,64,36,30.11,30.02,13,2,15,0.00
2013-6-21,62,52,43,44,40,37,87,66,44,30.13,30.08,11,2,11,0.00
2013-6-22,79,60,43,46,42,38,85,55,25,30.12,29.84,11,2,11,0.00
2013-6-23,62,58,54,56,52,43,97,81,56,29.84,29.61,12,1,12,0.26
2013-6-24,58,53,48,54,50,46,98,90,78,29.72,29.60,11,2,11,0.12
2013-6-25,65,57,51,55,49,46,92,76,59,29.85,29.70,21,5,21,0.04
2013-6-26,68,59,53,59,53,48,90,80,65,30.04,29.85,12,2,12,0.03
2013-6-27,85,68,51,58,53,49,97,65,35,30.11,30.02,15,2,15,0.00
2013-6-28,93,74,56,60,56,52,92,59,26,30.11,29.92,14,2,14,0.00
2013-6-29,90,76,65,60,56,53,73,53,32,29.97,29.85,13,2,13,0.00
2013-6-30,96,78,61,60,55,50,76,49,24,29.92,29.75,12,2,12,0.00
2013-7-1,99,82,70,61,56,53,61,44,23,29.88,29.77,13,2,13,0.00
2013-7-2,101,83,68,62,56,44,75,45,17,29.90,29.81,15,2,15,0.00
2013-7-3,93,76,64,63,55,42,82,52,27,29.91,29.81,14,2,14,0.00
2013-7-4,85,69,58,48,42,31,64,41,17,29.90,29.80,15,2,15,0.00
2013-7-5,82,64,49,46,39,30,79,46,18,29.86,29.78,12,2,12,0.00
2013-7-6,86,66,47,47,37,27,77,40,15,29.86,29.73,13,2,13,0.00
2013-7-7,90,70,54,51,45,40,72,45,18,29.81,29.69,14,1,14,0.00
2013-7-8,90,70,54,50,41,34,74,41,14,29.97,29.81,12,2,12,0.00
2013-7-9,96,76,58,52,46,32,61,38,11,29.98,29.83,14,2,14,0.00
2013-7-10,90,75,62,53,48,38,65,41,19,29.91,29.70,15,2,15,0.00
2013-7-11,84,65,53,49,45,40,82,52,22,29.83,29.77,9,1,9,0.00
2013-7-12,83,69,0,42,36,0,52,32,14,29.93,29.80,16,3,16,0.00
2013-7-13,82,63,46,40,35,26,77,41,16,30.06,29.93,12,1,12,0.00
2013-7-14,92,72,54,48,36,26,49,28,14,30.05,29.84,15,2,15,0.00
2013-7-15,89,72,56,47,40,35,63,35,15,29.89,29.72,13,2,13,0.00
2013-7-16,87,72,63,48,39,32,42,31,20,29.86,29.72,13,3,13,0.00
2013-7-17,90,74,60,46,40,32,60,33,14,30.02,29.85,15,4,15,0.00
2013-7-18,95,75,57,50,41,32,53,34,12,30.04,29.89,13,2,13,0.00
2013-7-19,95,76,58,51,35,24,51,26,9,29.97,29.83,12,2,12,0.00
2013-7-20,96,77,62,51,38,20,60,29,7,29.88,29.74,14,2,14,0.00
2013-7-21,96,75,58,49,36,13,72,32,5,29.79,29.72,16,3,16,0.00
2013-7-22,96,79,57,46,36,21,59,25,9,29.87,29.79,13,2,13,0.00
2013-7-23,96,78,63,49,40,31,58,30,10,29.89,29.78,14,2,14,0.00
2013-7-24,94,77,65,48,40,24,50,29,10,29.89,29.83,10,1,11,0.00
2013-7-25,97,78,61,49,40,25,59,29,10,29.94,29.85,18,2,18,0.00
2013-7-26,96,79,66,44,36,24,37,22,9,29.96,29.86,17,2,17,0.00
2013-7-27,87,71,59,42,36,25,53,31,12,29.96,29.82,15,2,15,0.00
2013-7-28,84,67,52,44,37,25,60,38,15,29.86,29.79,12,3,14,0.00
2013-7-29,86,68,52,47,41,33,70,43,16,29.92,29.78,12,2,12,0.00
2013-7-30,87,69,53,47,38,24,68,38,11,30.01,29.92,13,2,13,0.00
2013-7-31,84,68,61,54,45,33,69,46,17,30.00,29.84,26,1,26,0.04
2013-8-1,72,60,51,60,50,43,97,71,39,30.00,29.86,15,2,15,0.22
2013-8-2,78,60,47,49,44,36,86,60,24,30.06,29.98,12,3,12,0.00
2013-8-3,84,66,50,48,42,32,82,48,17,30.04,29.91,12,2,12,0.00
2013-8-4,91,72,56,49,46,40,70,43,19,29.97,29.80,12,2,12,0.00
2013-8-5,89,73,60,52,46,34,64,41,15,29.90,29.80,16,2,16,0.00
2013-8-6,92,74,56,51,45,37,71,41,15,29.90,29.79,16,3,16,0.00
2013-8-7,85,71,61,48,43,35,53,38,20,29.91,29.82,25,2,25,0.00
2013-8-8,83,70,57,48,44,38,64,40,21,29.89,29.80,13,2,13,0.00
2013-8-9,84,67,56,57,49,44,79,55,25,29.88,29.73,28,3,28,0.01
2013-8-10,72,59,53,56,49,45,81,70,44,29.99,29.85,10,2,10,0.06
2013-8-11,81,64,51,52,48,41,84,60,28,30.00,29.89,15,4,15,0.00
2013-8-12,85,66,53,56,50,45,84,59,27,29.97,29.86,14,2,14,0.01
2013-8-13,88,70,54,50,47,41,82,49,20,30.00,29.86,15,2,15,0.01
2013-8-14,90,73,60,51,46,37,58,41,16,29.91,29.76,14,2,14,0.00
2013-8-15,81,66,58,54,50,47,73,57,33,29.89,29.80,9,2,12,0.00
2013-8-16,84,70,60,58,54,50,79,59,32,29.94,29.85,18,2,18,0.00
2013-8-17,84,69,59,57,53,50,85,59,32,29.98,29.86,15,2,15,0.00
2013-8-18,89,70,55,52,48,37,81,52,21,30.02,29.92,14,2,14,0.00
2013-8-19,87,67,57,51,49,43,70,55,21,29.99,29.86,12,2,17,0.00
2013-8-20,86,68,53,50,38,17,84,42,8,29.98,29.89,11,1,11,0.00
2013-8-21,84,70,58,45,37,29,50,31,17,29.95,29.84,11,1,11,0.00
2013-8-22,80,67,60,56,47,36,77,50,33,29.89,29.80,27,3,27,0.03
2013-8-23,81,68,54,51,49,46,82,55,30,29.85,29.74,17,4,17,0.00
2013-8-24,78,63,53,53,50,45,85,64,33,29.83,29.70,10,1,10,0.00
2013-8-25,72,59,52,60,52,49,92,78,51,29.90,29.74,30,2,30,0.08
2013-8-26,76,62,52,52,48,44,89,65,34,29.92,29.87,16,4,16,0.00
2013-8-27,87,66,50,53,47,37,84,57,17,29.92,29.72,17,2,17,0.00
2013-8-28,84,68,55,54,49,40,83,55,23,29.83,29.74,23,4,23,0.00
2013-8-29,82,69,60,54,50,44,76,54,28,29.98,29.79,14,4,18,0.00
2013-8-30,83,67,54,55,51,44,85,60,28,30.06,29.92,17,2,17,0.00
2013-8-31,88,70,54,54,51,46,89,57,26,29.98,29.77,12,1,12,0.00
2013-9-1,68,64,60,49,48,47,62,56,49,29.80,29.77,6,0,8,0.00
2013-9-2,86,69,55,53,49,34,81,54,16,29.82,29.69,17,3,17,0.00
2013-9-3,83,65,53,53,49,34,90,61,18,29.92,29.81,17,4,17,0.00
2013-9-4,84,65,53,50,47,33,83,57,17,29.93,29.84,18,3,18,0.00
2013-9-5,72,59,52,52,48,41,84,70,41,30.00,29.80,31,3,31,0.02
2013-9-6,71,58,49,51,48,44,90,69,46,30.10,30.00,15,4,16,0.01
2013-9-7,51,49,48,47,46,45,90,88,84,30.09,30.04,11,0,11,0.00
2013-9-8,76,67,51,52,48,43,89,53,32,30.01,29.97,13,2,13,0.00
2013-9-9,84,67,54,49,44,32,73,47,19,30.00,29.87,13,2,13,0.00
2013-9-10,87,70,57,50,46,41,69,45,21,29.91,29.81,11,1,11,0.00
2013-9-11,89,72,58,52,46,42,69,43,19,29.94,29.85,10,1,10,0.00
2013-9-12,85,70,62,50,46,41,58,43,27,29.91,29.80,7,1,7,0.00
2013-9-13,81,72,62,53,44,36,61,36,23,29.82,29.70,7,1,9,0.00
2013-9-14,89,73,61,52,48,43,65,44,21,29.75,29.63,10,2,10,0.00
2013-9-15,89,70,57,51,44,28,67,44,11,29.72,29.51,21,4,21,0.00
2013-9-16,72,59,50,49,45,42,80,62,40,29.84,29.72,14,3,14,0.00
2013-9-17,58,51,44,48,44,39,89,77,61,29.97,29.75,15,1,17,0.02
2013-9-18,67,52,44,42,38,34,86,62,31,30.09,29.97,10,1,10,0.00
2013-9-19,82,59,43,41,36,28,76,47,15,30.05,29.80,12,1,12,0.00
2013-9-20,78,59,45,47,38,29,85,50,18,29.80,29.53,18,4,18,0.00
2013-9-21,63,53,45,46,42,39,84,68,44,29.75,29.61,18,4,18,0.00
2013-9-22,59,50,44,48,42,39,86,74,53,29.85,29.72,26,8,26,0.00
2013-9-23,65,55,49,45,41,37,71,61,42,29.95,29.83,24,5,24,0.00
2013-9-24,53,48,45,46,42,37,92,78,62,29.92,29.83,19,2,21,0.17
2013-9-25,52,45,38,39,36,33,92,72,52,30.00,29.81,14,2,14,0.01
2013-9-26,54,44,34,39,34,30,88,70,48,30.18,30.00,12,1,12,0.00
2013-9-27,63,47,35,45,37,28,89,71,28,30.19,30.01,20,6,20,0.00
2013-9-28,63,53,47,51,46,43,95,78,54,30.02,29.55,36,10,36,0.30
2013-9-29,50,46,41,49,43,37,96,89,70,29.73,29.52,28,7,28,0.56
2013-9-30,52,45,38,48,37,32,95,75,59,30.02,29.58,32,6,32,0.04
2013-10-1,54,44,35,42,35,28,84,71,44,30.20,30.00,19,5,19,0.00
2013-10-2,50,39,30,36,32,27,91,78,47,30.20,30.08,12,2,12,0.00
2013-10-3,52,40,32,37,33,29,94,78,51,30.47,30.17,9,1,9,0.00
2013-10-4,60,45,34,35,32,26,88,65,29,30.55,30.43,9,1,9,0.00
2013-10-5,73,52,36,38,32,25,74,51,17,30.43,30.22,16,3,16,0.00
2013-10-6,74,56,42,39,32,27,60,42,21,30.22,29.96,19,4,19,0.00
2013-10-7,56,49,37,40,32,24,83,53,38,30.07,29.90,16,5,22,0.00
2013-10-8,49,41,36,41,35,31,94,79,55,30.09,29.94,12,2,12,0.03
2013-10-9,44,38,36,37,35,33,95,87,74,30.09,30.00,12,2,12,0.01
2013-10-10,57,44,35,38,34,31,88,69,44,30.07,29.96,15,2,15,0.00
2013-10-11,53,43,34,38,35,31,90,75,52,30.13,30.07,13,3,13,0.00
2013-10-12,48,41,36,40,36,33,94,83,65,30.17,30.05,7,1,7,0.01
2013-10-13,50,43,37,40,37,34,95,81,55,30.33,30.16,7,1,7,0.00
2013-10-14,54,42,34,38,34,30,94,74,46,30.43,30.33,11,1,11,0.00
2013-10-15,61,44,31,34,30,27,87,62,32,30.42,30.20,10,1,10,0.00
2013-10-16,64,48,36,33,29,26,73,50,28,30.20,30.11,16,3,16,0.00
2013-10-17,60,46,36,38,34,32,88,65,36,30.28,30.18,8,1,8,0.00
2013-10-18,62,47,36,40,36,32,88,67,39,30.29,30.19,7,0,7,0.00
2013-10-19,73,54,39,38,34,25,79,52,18,30.20,30.09,14,4,17,0.00
2013-10-20,68,53,42,36,34,29,65,49,27,30.15,30.09,9,0,9,0.00
2013-10-21,50,48,46,36,35,34,64,60,55,30.16,30.14,8,1,8,0.00
2013-10-22,67,51,41,41,38,34,80,62,35,30.15,30.08,7,1,7,0.00
2013-10-23,67,54,43,43,39,36,81,60,37,30.08,30.02,7,1,11,0.00
2013-10-24,67,51,42,44,40,36,90,69,38,30.12,30.02,13,1,13,0.00
2013-10-25,71,54,44,42,37,30,82,56,23,30.23,30.11,13,2,13,0.00
2013-10-26,68,51,41,41,36,32,84,59,31,30.24,30.08,16,3,16,0.00
2013-10-27,51,41,37,44,37,28,97,87,47,30.10,29.73,21,4,21,0.38
2013-10-28,40,34,31,39,30,22,98,84,65,30.00,29.78,21,5,21,0.05
2013-10-29,45,35,28,29,24,20,76,64,47,30.11,30.00,7,1,7,0.02
2013-10-30,56,42,33,37,32,27,86,69,37,30.20,30.10,15,4,15,0.00
2013-10-31,62,49,42,48,42,35,89,75,55,30.25,30.14,12,3,15,0.00
2013-11-1,59,46,37,45,41,35,96,81,57,30.26,29.94,17,4,17,0.00
2013-11-2,50,43,32,42,35,25,92,73,46,30.05,29.75,24,7,24,0.01
2013-11-3,44,36,30,31,28,24,90,76,48,30.16,30.01,14,2,14,0.00
2013-11-4,48,39,33,34,31,28,85,73,47,30.20,30.11,18,3,18,0.00
2013-11-5,51,44,39,43,39,33,90,82,70,30.25,30.13,20,7,20,0.00
2013-11-6,56,49,44,47,44,42,92,83,70,30.28,30.11,15,4,15,0.00
2013-11-7,50,43,36,46,37,29,94,79,62,30.11,29.88,26,6,26,0.13
2013-11-8,46,39,33,35,32,30,91,77,61,30.21,30.10,14,2,14,0.00
2013-11-9,50,40,31,38,33,29,92,78,52,30.16,30.10,19,2,19,0.00
2013-11-10,62,47,38,44,38,35,94,74,39,30.16,30.09,18,2,18,0.00
2013-11-11,41,38,37,39,37,35,97,94,87,30.29,30.16,4,0,4,0.01
2013-11-12,57,46,36,47,40,35,96,81,58,30.40,30.25,18,3,20,0.01
2013-11-13,56,43,35,41,35,29,97,76,36,30.45,30.26,11,1,11,0.00
2013-11-14,46,38,31,32,28,24,87,68,45,30.26,30.07,13,2,13,0.00
2013-11-15,44,36,30,31,28,25,87,73,56,30.08,29.59,27,5,27,0.00
2013-11-16,46,40,36,32,30,27,80,67,50,29.84,29.51,27,6,27,0.00
2013-11-17,47,40,35,34,31,28,81,70,54,30.05,29.84,22,8,22,0.00
2013-11-18,50,44,40,38,34,30,89,68,51,30.02,29.79,32,9,32,0.00
2013-11-19,49,43,39,45,40,36,93,87,78,29.85,29.75,28,9,28,0.02
2013-11-20,41,30,20,39,20,-1,93,67,38,30.45,29.84,13,3,13,0.00
2013-11-21,31,22,17,8,3,-2,65,45,31,30.79,30.45,6,1,9,0.00
2013-11-22,34,23,16,13,10,6,76,59,38,30.82,30.70,13,1,13,0.00
2013-11-23,37,26,16,18,16,11,85,67,46,30.71,30.43,5,0,5,0.00
2013-11-24,56,36,24,22,19,15,75,55,20,30.43,30.32,13,3,19,0.00
2013-11-25,48,36,29,24,21,18,72,56,37,30.43,30.36,14,2,14,0.00
2013-11-26,50,36,29,26,22,20,71,59,34,30.38,30.20,7,1,11,0.00
2013-11-27,44,36,32,28,25,22,73,64,51,30.20,30.09,7,0,7,0.00
2013-11-28,52,40,28,31,28,24,85,64,43,30.27,30.18,13,1,13,0.00
2013-11-29,55,44,33,32,28,25,72,55,33,30.33,30.25,15,3,15,0.00
2013-11-30,55,46,40,39,36,32,82,69,52,30.36,30.27,13,2,13,0.00
2013-12-1,54,50,45,45,41,37,87,71,58,30.16,29.82,38,12,38,0.00
2013-12-2,49,36,26,39,30,19,95,80,59,29.97,29.75,29,4,29,0.11
2013-12-3,26,21,14,23,16,7,91,81,68,30.32,29.96,15,2,15,0.00
2013-12-4,20,13,7,8,5,3,83,69,55,30.43,30.31,10,1,10,0.00
2013-12-5,25,12,3,12,6,-1,84,75,51,30.43,30.30,15,2,15,0.00
2013-12-6,12,10,8,8,7,5,90,88,84,30.31,30.11,11,1,14,0.00
2013-12-7,8,3,-2,5,-1,-6,88,83,72,30.57,30.17,18,4,18,0.00
2013-12-8,22,8,-2,14,2,-7,86,78,58,30.76,30.57,17,4,17,0.00
2013-12-9,33,20,8,23,13,3,85,72,58,30.76,30.54,24,7,24,0.00
2013-12-10,39,30,23,27,22,18,85,73,54,30.55,30.42,18,2,18,0.05
2013-12-11,43,32,22,30,25,19,90,76,56,30.46,30.32,19,6,19,0.07
2013-12-12,44,36,26,32,26,20,87,67,49,30.32,30.17,28,9,28,0.05
2013-12-13,48,38,34,36,32,30,89,82,62,30.48,30.24,18,4,18,0.02
2013-12-14,47,41,33,33,31,25,89,69,47,30.48,30.42,22,8,26,0.00
2013-12-15,55,45,39,40,29,19,84,57,28,30.44,30.34,17,4,18,0.00
2013-12-16,55,42,35,33,28,23,83,57,31,30.44,30.32,18,5,18,0.00
2013-12-17,59,46,38,31,26,22,60,46,30,30.32,30.08,23,6,23,0.00
2013-12-18,42,38,30,33,29,24,94,71,51,30.09,29.91,13,1,13,0.00
2013-12-19,31,25,21,28,17,12,90,71,50,30.30,30.01,13,2,13,0.00
2013-12-20,46,34,22,38,26,10,83,71,48,30.24,29.89,24,6,24,0.07
2013-12-21,51,42,37,36,33,30,84,72,47,30.18,29.90,20,3,20,0.00
2013-12-22,54,45,40,40,36,32,82,71,49,30.33,30.16,18,4,18,0.00
2013-12-23,55,45,39,41,34,27,76,64,51,30.45,30.23,26,6,26,0.00
2013-12-24,48,36,29,33,28,25,91,75,45,30.55,30.46,15,3,15,0.00
2013-12-25,36,34,32,27,25,24,77,71,64,30.53,30.48,21,9,21,0.00
2013-12-26,60,48,37,32,26,21,59,44,28,30.37,30.24,21,5,21,0.00
2013-12-27,52,43,37,28,24,19,65,47,33,30.29,30.13,19,6,23,0.00
2013-12-28,46,35,29,29,21,16,79,58,30,30.51,30.28,6,1,7,0.00
2013-12-29,50,37,28,26,19,14,77,48,25,30.49,30.32,18,5,18,0.00
2013-12-30,46,42,36,28,22,16,60,45,30,30.33,30.19,20,6,20,0.00
2013-12-31,52,45,40,28,23,19,58,42,30,30.32,30.21,15,4,15,0.00
2014-1-1,52,40,32,35,30,25,82,70,50,30.38,30.30,8,2,13,0.00
2014-1-2,59,45,34,36,30,28,78,58,37,30.32,30.04,22,7,22,0.00